Temp
53 55 55 56 57 56 57 58 58 58 57 54 54 55 54 55 54 53 54 54 54 53 51 50 49 49 48 46 47 46 45 46 44 44 46 46 47 47 48 48 48 49 49
53 55 55 55 55 54 56 55 56 56 57 55 53 55 54 53 53 53 51 51 51 51 52 49 47 47 47 45 44 44 44 44 43 41 40 39 43 45 47 46 47 45 46
52 54 54 52 53 54 54 56 55 56 55 55 54 52 52 51 50 49 48 48 49 49 49 48 47 46 45 44 42 42 42 40 41 41 40 36 34 37 43 44 44 43 43
54 54 53 54 53 52 53 55 56 55 55 54 54 53 50 48 46 46 46 47 48 49 49 48 46 45 44 44 43 43 41 41 37 40 43 40 38 34 34 40 43 42 44
52 55 54 54 52 54 53 52 54 55 53 52 51 48 46 45 45 45 46 47 47 48 47 47 46 45 43 42 42 40 39 39 37 37 36 36 37 37 34 32 36 43 41
50 52 55 56 54 52 51 51 51 49 49 49 48 47 46 45 46 46 46 46 46 45 46 46 43 42 41 41 40 39 38 37 37 36 36 35 33 33 33 31 32 34 38
48 50 53 53 49 48 49 50 48 47 48 48 48 47 48 47 47 46 44 44 45 44 43 42 41 41 41 41 40 39 38 36 35 35 35 35 34 35 33 32 30 31 33
50 50 47 47 47 48 48 48 48 47 47 47 47 46 46 45 45 44 44 45 42 41 41 41 41 41 44 41 43 41 37 36 35 34 33 33 33 33 33 32 30 27 29
46 47 47 47 47 47 46 46 47 46 46 45 44 44 44 44 43 43 42 41 41 43 40 40 42 42 40 41 40 37 39 36 35 34 33 32 33 32 31 32 31 28 24
46 47 47 47 46 46 45 47 46 44 44 43 43 43 42 42 41 39 39 39 40 42 43 44 41 42 41 42 40 37 36 35 33 34 32 32 32 31 31 30 30 29 27
45 45 45 45 46 48 48 47 44 44 43 42 42 41 40 40 40 39 38 38 40 41 41 42 42 39 39 38 36 35 34 34 33 32 32 32 31 30 30 30 30 29 29
45 45 45 47 47 45 45 43 43 43 42 41 41 40 40 39 38 38 38 38 39 39 40 39 39 38 37 36 34 34 33 32 32 32 31 31 35 30 29 28 28 28 29
44 44 44 46 46 44 42 44 45 42 41 40 39 38 38 37 37 37 37 38 37 38 38 38 37 36 36 35 34 33 33 31 31 31 30 30 29 28 27 28 28 28 31
44 43 43 44 43 43 45 44 42 41 40 39 38 38 37 37 36 36 36 36 37 37 36 36 36 36 36 35 33 32 31 31 31 31 30 29 29 28 28 28 28 29 27
43 43 42 41 44 44 42 42 40 40 40 39 38 38 37 37 37 36 36 36 36 39 36 35 34 34 35 34 32 32 31 30 29 30 30 31 32 34 33 31 28 28 27
44 45 44 46 44 42 41 41 40 40 40 38 38 38 38 37 36 35 35 35 38 34 33 33 33 33 35 36 37 35 30 30 29 29 29 29 31 31 32 31 31 31 27
46 45 46 44 43 41 41 40 40 40 38 38 38 38 37 36 35 35 34 34 33 33 33 32 32 29 30 35 35 32 28 27 26 28 26 27 30 28 28 28 30 30 30
45 44 43 42 41 40 40 39 38 38 37 37 37 37 36 35 34 33 33 33 33 32 30 29 29 29 32 34 32 31 26 26 26 26 25 25 25 26 28 27 27 28 29
43 44 43 42 40 39 39 38 37 37 37 37 36 36 35 34 33 33 32 32 32 31 30 31 29 28 27 33 32 30 24 24 24 26 26 26 25 28 30 27 25 26 28
44 44 42 41 39 39 38 37 37 36 35 36 36 36 35 33 32 32 31 31 30 31 31 29 27 30 25 30 31 29 21 17 22 24 26 26 27 29 30 26 24 22 26
43 42 41 39 39 38 38 36 35 35 36 36 35 35 34 33 32 31 30 30 28 28 25 26 25 26 27 25 30 30 20 20 22 22 22 24 26 29 29 29 24 25 26
41 40 39 39 38 38 36 34 33 36 35 35 34 33 33 33 34 30 29 28 26 25 22 15 18 21 22 27 27 29 28 28 14 20 22 21 28 27 27 26 28 27 24
40 39 39 38 38 37 35 33 34 34 33 32 32 33 33 33 32 29 27 26 24 20 20 23 16 19 22 20 26 27 28 27 16 19 22 25 25 24 24 24 25 23 21
39 38 37 35 35 35 35 33 33 33 31 31 31 31 31 32 31 31 30 27 20 19 23 20 20 16 17 16 17 19 15 19 21 17 16 17 21 17 19 20 19 19 20
38 37 36 34 34 34 33 33 32 31 30 31 31 30 29 29 31 30 29 28 27 25 21 20 19 8 5 15 21 22 16 11 16 9 7 11 15 15 17 17 17 16 17
36 36 35 33 33 32 30 30 31 30 29 31 34 30 31 32 30 30 30 33 33 32 32 31 21 13 23 28 29 30 29 28 25 11 4 0 2 10 15 15 15 13 13
MSLP
1020.81 1020.64 1020.80 1020.72 1020.80 1021.29 1021.59 1021.92 1022.29 1023.00 1023.05 1023.46 1023.89 1023.79 1023.96 1024.12 1023.98 1023.96 1023.78 1023.58 1023.58 1023.50 1023.56 1023.66 1023.58 1023.51 1023.81 1024.11 1023.98 1023.86 1023.88 1023.71 1023.55 1023.31 1022.85 1022.34 1022.06 1021.91 1021.94 1021.95 1021.96 1021.83 1021.65
1021.11 1021.30 1021.23 1021.20 1021.25 1021.66 1021.91 1022.13 1022.33 1022.58 1022.61 1022.66 1023.13 1023.27 1023.64 1023.89 1024.15 1024.25 1024.27 1024.19 1024.13 1024.06 1023.95 1023.89 1023.87 1023.86 1024.01 1024.18 1024.05 1024.06 1024.26 1024.21 1024.09 1024.18 1023.75 1023.17 1022.68 1022.26 1021.84 1021.87 1022.04 1022.16 1021.96
1021.36 1021.56 1021.55 1021.72 1021.62 1021.96 1022.01 1022.11 1022.48 1022.59 1022.81 1022.99 1023.13 1023.39 1023.57 1024.01 1024.40 1024.65 1024.78 1024.71 1024.45 1024.26 1024.03 1023.89 1023.93 1024.01 1023.92 1023.95 1024.03 1023.95 1023.99 1024.40 1024.47 1024.53 1024.56 1024.28 1023.92 1023.52 1022.55 1022.16 1022.26 1022.18 1022.05
1021.50 1021.15 1021.60 1021.93 1022.01 1022.19 1022.33 1022.43 1022.54 1022.73 1022.92 1022.93 1023.15 1023.48 1024.13 1024.54 1024.95 1024.92 1024.98 1024.75 1024.42 1024.20 1023.89 1023.79 1023.93 1023.98 1024.16 1024.04 1024.10 1024.18 1024.25 1024.43 1024.85 1024.76 1024.59 1024.66 1024.76 1024.37 1023.33 1022.80 1022.55 1022.32 1022.10
1021.62 1021.50 1022.13 1022.74 1022.82 1022.69 1022.71 1022.96 1023.00 1023.27 1023.53 1023.64 1023.86 1024.17 1024.66 1024.95 1025.10 1025.06 1024.82 1024.47 1024.04 1023.92 1024.09 1023.94 1023.89 1023.98 1024.19 1024.16 1024.22 1024.17 1024.34 1024.62 1024.94 1025.10 1025.04 1024.89 1024.72 1024.53 1024.55 1023.55 1023.11 1022.61 1022.24
1022.30 1021.92 1022.32 1022.66 1023.21 1023.02 1023.12 1023.19 1023.53 1024.13 1024.10 1024.16 1024.40 1024.66 1025.05 1025.23 1025.15 1024.87 1024.69 1024.57 1024.32 1024.08 1023.92 1023.96 1024.19 1024.48 1024.66 1024.77 1024.85 1024.78 1024.68 1024.80 1024.88 1025.12 1025.09 1025.19 1025.17 1024.82 1024.49 1024.24 1023.86 1023.25 1022.13
1022.55 1022.62 1022.91 1022.66 1023.70 1023.66 1023.81 1023.99 1024.31 1024.80 1024.78 1024.78 1024.90 1025.06 1025.14 1025.23 1025.31 1025.34 1025.25 1024.99 1024.45 1024.07 1024.08 1024.35 1024.60 1024.69 1024.85 1024.91 1024.80 1024.81 1025.09 1025.20 1024.80 1024.89 1025.06 1024.91 1024.95 1024.75 1024.49 1024.32 1023.81 1023.46 1022.89
1022.91 1023.25 1023.45 1023.22 1023.77 1023.97 1024.39 1024.68 1025.06 1025.49 1025.59 1025.65 1025.76 1025.83 1025.79 1025.80 1025.70 1025.52 1025.11 1024.72 1024.38 1024.01 1023.90 1023.98 1024.11 1024.10 1024.05 1024.18 1024.35 1024.40 1024.68 1024.94 1024.80 1024.73 1024.79 1024.77 1024.62 1024.53 1024.43 1024.29 1024.04 1023.40 1023.06
1023.43 1023.81 1023.86 1023.81 1024.04 1024.38 1024.70 1025.04 1025.29 1025.69 1025.94 1026.00 1025.89 1025.91 1025.87 1025.79 1025.70 1025.29 1024.87 1024.37 1023.81 1023.51 1023.75 1024.04 1024.08 1024.14 1024.32 1024.67 1024.74 1024.75 1024.40 1024.47 1024.40 1024.57 1024.55 1024.76 1024.47 1024.60 1024.43 1024.19 1024.25 1024.10 1022.88
1023.66 1023.97 1024.10 1024.19 1024.30 1024.53 1024.97 1025.27 1025.52 1025.91 1026.03 1025.97 1025.89 1025.92 1025.89 1025.82 1025.63 1025.19 1024.66 1024.13 1023.82 1023.56 1023.78 1023.91 1024.25 1024.64 1024.31 1023.94 1024.20 1024.29 1024.21 1024.41 1024.58 1024.49 1024.51 1024.64 1024.47 1024.37 1024.13 1024.15 1023.99 1023.79 1023.41
1023.79 1024.15 1024.34 1024.51 1024.52 1024.87 1025.13 1025.44 1025.86 1026.07 1026.23 1026.22 1026.17 1026.20 1026.20 1025.91 1025.50 1025.15 1024.68 1024.18 1023.74 1023.56 1023.61 1023.65 1023.91 1024.23 1023.96 1024.05 1024.30 1024.27 1024.25 1024.33 1024.37 1024.41 1024.40 1024.38 1024.23 1024.06 1023.97 1023.90 1023.68 1023.46 1023.13
1024.07 1024.28 1024.48 1024.87 1025.25 1025.59 1025.90 1025.77 1026.23 1026.25 1026.29 1026.30 1026.39 1026.41 1026.19 1025.89 1025.61 1025.26 1024.77 1024.23 1023.92 1023.72 1023.56 1023.74 1023.94 1023.88 1023.75 1023.90 1024.08 1024.01 1024.03 1024.17 1024.25 1024.15 1024.10 1023.98 1023.81 1023.80 1023.71 1023.64 1023.47 1023.09 1022.60
1024.29 1024.57 1024.86 1025.25 1025.67 1025.66 1025.98 1026.34 1026.39 1026.34 1026.19 1026.33 1026.37 1026.26 1026.09 1025.89 1025.63 1025.26 1024.85 1024.48 1024.36 1024.21 1024.07 1023.78 1023.68 1023.53 1023.60 1023.71 1023.67 1023.71 1023.86 1024.04 1023.94 1023.85 1023.73 1023.60 1023.61 1023.57 1023.43 1023.28 1023.01 1022.56 1021.98
1024.31 1024.68 1025.14 1025.49 1025.53 1025.67 1025.85 1026.16 1026.18 1026.13 1026.21 1026.30 1026.30 1026.12 1025.92 1025.73 1025.37 1025.00 1024.80 1024.79 1024.66 1024.25 1023.92 1023.62 1023.42 1023.25 1023.39 1023.57 1023.55 1023.69 1023.77 1023.78 1023.75 1023.69 1023.59 1023.47 1023.35 1023.15 1022.92 1022.67 1022.39 1021.98 1021.61
1024.44 1024.65 1025.04 1025.18 1025.29 1025.54 1025.81 1025.95 1025.95 1026.07 1026.09 1026.12 1026.02 1025.80 1025.58 1025.34 1025.14 1025.00 1024.78 1024.54 1024.34 1024.10 1023.77 1023.56 1023.29 1023.29 1023.42 1023.51 1023.58 1023.65 1023.69 1023.78 1023.71 1023.62 1023.47 1023.22 1022.92 1022.38 1022.25 1021.94 1021.79 1021.62 1021.09
1023.96 1024.24 1024.55 1024.74 1024.98 1025.41 1025.63 1025.67 1025.81 1025.92 1025.89 1025.89 1025.85 1025.54 1025.33 1025.15 1024.92 1024.76 1024.61 1024.46 1024.14 1023.91 1023.68 1023.58 1023.34 1023.46 1023.61 1023.50 1023.41 1023.48 1023.77 1023.77 1023.69 1023.53 1023.39 1023.19 1022.72 1022.36 1021.96 1021.84 1021.39 1021.02 1020.53
1023.36 1023.71 1023.97 1024.31 1024.70 1025.06 1025.24 1025.51 1025.59 1025.62 1025.69 1025.72 1025.46 1025.31 1025.25 1025.05 1024.79 1024.68 1024.44 1024.16 1024.03 1023.85 1023.73 1023.62 1023.89 1023.80 1023.76 1023.63 1023.64 1023.90 1024.02 1024.00 1023.95 1023.73 1023.46 1023.05 1022.55 1022.41 1021.96 1021.45 1020.90 1020.39 1019.90
1022.99 1023.32 1023.66 1024.04 1024.44 1024.75 1025.09 1025.31 1025.49 1025.53 1025.57 1025.44 1025.24 1025.07 1024.99 1024.85 1024.67 1024.45 1024.09 1023.85 1023.71 1023.69 1023.69 1023.87 1024.09 1023.91 1023.88 1023.90 1023.96 1023.96 1024.14 1024.18 1024.03 1023.76 1023.44 1023.03 1022.61 1022.15 1021.54 1020.90 1020.23 1019.84 1019.23
1022.44 1022.73 1023.07 1023.67 1024.23 1024.64 1025.00 1025.35 1025.41 1025.38 1025.27 1025.01 1024.94 1024.77 1024.65 1024.54 1024.33 1024.24 1023.87 1023.54 1023.46 1023.53 1023.64 1023.86 1024.03 1024.12 1024.23 1024.03 1023.96 1024.06 1024.23 1024.24 1023.99 1023.64 1023.31 1022.78 1022.40 1021.87 1021.14 1020.49 1019.95 1019.32 1018.66
1022.03 1022.53 1023.09 1023.64 1024.22 1024.63 1024.95 1025.19 1025.19 1025.20 1025.02 1024.72 1024.54 1024.31 1024.21 1024.21 1024.14 1023.87 1023.64 1023.39 1023.37 1023.37 1023.66 1024.07 1024.20 1024.33 1024.42 1024.29 1024.18 1024.19 1024.21 1024.21 1023.85 1023.45 1023.04 1022.69 1022.19 1021.44 1020.71 1020.32 1019.96 1019.30 1018.48
1022.15 1022.65 1023.26 1023.83 1024.18 1024.50 1024.80 1025.14 1025.18 1025.00 1024.60 1024.25 1023.97 1023.83 1023.69 1023.76 1023.71 1023.56 1023.38 1023.25 1023.43 1023.70 1024.05 1024.27 1024.41 1024.46 1024.48 1024.52 1024.26 1024.08 1023.97 1023.87 1023.59 1023.32 1022.91 1022.52 1022.00 1021.17 1020.60 1020.23 1019.92 1019.13 1018.70
1022.58 1023.12 1023.60 1023.98 1024.32 1024.63 1024.93 1025.02 1025.00 1024.50 1024.23 1023.97 1023.75 1023.53 1023.33 1023.31 1023.30 1023.41 1023.27 1023.29 1023.58 1024.02 1024.40 1024.58 1024.70 1024.62 1024.70 1024.48 1024.37 1023.98 1023.74 1023.49 1023.59 1023.30 1022.90 1022.44 1021.77 1021.27 1020.83 1020.46 1019.78 1019.26 1018.88
1022.80 1023.40 1023.88 1024.30 1024.49 1024.60 1024.75 1024.84 1024.54 1024.35 1024.11 1023.89 1023.56 1023.23 1022.95 1022.83 1022.95 1023.23 1023.38 1023.53 1023.73 1024.01 1024.23 1024.40 1024.61 1024.71 1024.62 1024.63 1024.27 1023.97 1023.59 1023.40 1023.37 1023.08 1022.60 1022.38 1021.98 1021.52 1021.11 1020.71 1020.13 1019.58 1019.11
1023.36 1023.62 1023.96 1024.34 1024.58 1024.56 1024.57 1024.62 1024.37 1024.18 1024.05 1023.79 1023.44 1023.06 1022.76 1022.62 1022.59 1022.82 1023.10 1023.33 1023.59 1023.75 1023.95 1024.15 1024.37 1024.43 1024.57 1024.43 1024.28 1023.93 1023.57 1023.66 1023.20 1023.01 1022.69 1022.56 1022.29 1021.75 1021.36 1020.92 1020.51 1020.05 1019.52
1023.27 1023.66 1024.05 1024.41 1024.57 1024.56 1024.53 1024.35 1024.18 1024.06 1023.94 1023.65 1023.35 1023.02 1022.80 1022.56 1022.44 1022.67 1022.82 1022.95 1022.97 1023.15 1023.40 1023.61 1023.80 1024.07 1024.17 1023.91 1023.50 1023.13 1023.16 1023.20 1023.17 1023.03 1022.92 1022.88 1022.55 1022.04 1021.46 1021.08 1020.80 1020.46 1019.91
1023.39 1023.79 1024.08 1024.33 1024.41 1024.41 1024.38 1024.26 1024.01 1023.87 1023.67 1023.29 1023.01 1022.82 1022.73 1022.50 1022.38 1022.56 1022.62 1022.56 1022.57 1022.59 1022.69 1022.82 1022.88 1023.04 1023.13 1023.03 1022.83 1022.68 1022.85 1023.06 1023.12 1023.34 1023.61 1023.36 1022.98 1022.54 1021.96 1021.44 1021.02 1020.76 1020.45
Wind_Speed
3 6 6 7 13 10 12 8 10 7 6 2 3 2 1 2 2 3 6 7 6 7 6 4 4 5 5 4 4 3 5 3 5 2 4 3 2 5 3 2 3 4 4
7 8 9 10 10 8 9 8 9 8 5 3 3 3 3 2 3 3 5 6 6 6 3 4 5 5 4 5 5 5 2 2 4 3 2 3 4 4 5 3 2 5 3
8 8 7 7 8 8 7 8 7 7 4 4 3 2 3 3 3 4 3 4 5 5 5 5 4 4 3 4 3 4 5 3 2 5 2 4 3 3 3 5 3 6 4
5 8 6 7 7 6 6 6 6 5 3 3 4 3 2 2 1 1 1 2 3 1 2 4 4 4 2 5 4 3 4 3 3 2 2 1 2 3 4 2 6 5 9
6 8 7 6 5 5 5 3 4 6 6 7 7 5 5 2 1 0 1 2 3 2 0 3 5 4 3 4 4 4 5 2 2 1 2 1 2 1 2 7 6 6 3
3 7 6 6 4 5 5 7 9 8 8 7 7 7 6 3 1 3 3 4 3 3 3 2 3 4 4 3 2 3 4 3 3 1 1 0 1 3 2 3 4 7 4
2 3 3 7 5 7 7 7 8 8 8 9 8 7 4 1 3 6 4 6 5 3 2 3 3 3 2 1 2 3 2 1 2 1 2 1 2 2 2 2 3 4 4
4 4 5 7 7 8 8 8 8 7 7 7 6 5 6 3 4 4 5 6 5 4 5 6 5 5 2 2 3 2 2 3 2 4 3 2 3 2 2 2 2 6 4
7 7 6 6 7 7 8 8 8 8 7 6 5 6 5 6 5 7 6 5 6 2 2 5 3 3 5 4 4 4 3 3 3 4 3 3 2 2 3 2 1 3 9
7 6 5 6 6 7 7 8 7 7 5 6 6 5 6 7 6 6 8 7 4 0 5 3 6 5 4 7 4 4 4 4 2 2 2 2 2 3 3 3 3 3 7
7 6 6 6 7 6 7 7 7 7 6 5 4 5 5 6 6 6 7 6 2 2 4 5 5 6 4 5 4 4 4 3 2 1 1 4 4 3 3 3 3 5 6
6 6 6 6 6 6 4 7 4 4 2 2 2 3 4 6 6 6 7 5 3 4 5 2 3 5 5 4 5 4 2 3 3 4 4 5 4 4 4 3 6 6 8
6 6 6 5 5 6 5 3 3 3 1 1 2 3 4 5 6 6 5 4 4 5 5 5 5 4 5 5 4 4 3 3 5 5 5 5 4 5 4 5 6 6 8
6 5 5 6 5 5 5 5 4 3 3 3 4 4 4 5 6 6 6 6 6 6 6 5 5 4 4 5 2 2 4 5 4 5 5 5 5 6 7 7 7 7 7
7 7 7 7 7 5 5 5 5 4 3 4 4 5 5 6 6 6 6 6 6 5 6 6 5 4 2 1 3 3 4 5 5 5 5 6 9 17 15 9 8 10 8
7 7 8 10 7 7 7 6 6 6 3 4 6 5 6 6 6 6 6 6 6 7 4 4 2 3 3 5 5 5 5 5 5 8 7 6 12 11 17 20 21 17 11
8 8 9 9 7 7 6 6 5 4 4 5 6 6 6 6 6 6 6 6 6 5 3 4 3 5 4 10 10 9 5 5 5 8 7 9 8 13 10 15 19 18 17
7 7 7 7 7 3 4 4 5 5 5 6 6 6 6 6 6 6 6 6 4 5 2 4 2 4 4 8 8 8 4 5 6 7 7 8 9 9 13 12 10 10 10
8 7 6 4 2 4 4 4 6 6 6 7 6 7 6 6 6 7 7 6 4 1 3 4 4 4 4 7 8 7 3 5 7 8 8 8 8 15 20 11 11 11 10
4 5 5 3 3 3 2 3 5 6 7 7 7 6 5 6 6 6 6 3 2 3 4 4 4 5 3 7 9 7 1 3 5 6 8 12 12 19 18 10 7 9 8
6 7 5 4 1 1 1 4 6 7 7 7 6 6 5 6 6 6 3 3 3 5 3 4 3 3 3 3 7 8 1 4 4 5 6 6 17 18 18 16 8 9 9
7 6 5 2 1 1 2 5 6 6 6 6 6 7 6 4 3 5 3 1 5 5 2 3 0 1 2 4 5 8 9 9 0 5 5 7 16 16 16 13 17 15 9
6 4 4 0 3 4 2 5 5 6 7 7 7 7 6 5 3 3 3 2 3 3 3 3 2 3 3 3 8 8 8 8 3 3 7 13 14 14 9 15 15 9 6
4 3 1 2 5 5 5 5 6 6 6 6 6 6 5 5 1 2 3 3 3 2 3 2 3 2 2 3 3 3 3 5 4 5 4 4 7 6 5 6 8 6 6
3 2 0 2 5 5 6 6 6 6 6 5 5 6 4 4 1 3 4 3 4 5 3 4 4 3 3 4 5 4 2 3 3 3 3 3 3 5 5 5 5 6 7
2 1 2 4 6 5 6 6 6 4 5 5 7 4 5 5 2 3 3 7 8 7 10 9 6 4 7 7 8 7 5 6 6 3 2 3 3 4 5 5 5 3 7
Wind_Direction
50 63 57 80 87 72 89 102 109 132 141 130 152 118 100 13 39 47 43 39 33 38 41 47 48 46 56 51 31 9 17 359 344 358 321 314 49 79 50 34 43 25 6
69 64 79 87 96 123 129 134 137 161 165 143 172 153 166 177 88 62 43 34 35 29 55 61 51 52 72 52 57 66 18 4 28 357 296 333 330 344 351 10 15 8 328
112 99 93 107 119 118 122 109 118 131 125 129 124 97 68 62 47 23 18 13 26 27 39 55 81 88 118 112 89 80 76 74 357 46 56 342 301 337 314 346 354 339 344
93 110 100 88 102 99 84 110 121 119 102 69 64 69 76 89 133 146 17 45 54 42 166 147 134 117 78 84 100 87 86 106 51 330 40 140 194 277 303 348 331 317 334
167 131 97 67 49 74 95 105 82 56 48 49 52 66 69 65 74 165 267 228 254 262 124 160 141 131 139 108 103 93 75 76 120 99 335 330 298 308 327 307 325 314 301
169 93 98 77 26 40 54 52 59 33 47 69 72 83 96 120 120 274 294 329 312 268 229 204 127 106 82 64 45 65 89 97 102 90 54 149 263 273 270 281 303 301 321
126 100 100 94 87 65 59 69 77 60 50 54 53 59 92 153 301 325 320 312 318 314 234 110 109 80 69 27 44 49 51 90 120 160 227 223 252 258 252 265 268 292 296
129 129 131 100 90 78 73 76 76 73 54 52 40 26 17 358 326 314 307 304 285 276 163 156 151 128 145 221 228 199 195 203 216 236 234 242 251 237 226 253 321 304 269
140 139 120 102 96 88 83 90 78 60 48 46 50 42 27 12 336 321 308 284 281 255 166 105 108 350 10 339 308 266 267 258 243 262 281 277 303 305 304 295 257 261 305
144 137 114 102 94 91 97 97 98 94 73 54 42 30 8 359 339 319 314 313 317 169 141 132 35 2 230 238 239 246 255 272 305 260 267 286 273 291 289 281 267 259 276
146 130 96 77 86 92 95 102 73 65 55 50 35 18 345 336 338 335 320 311 273 150 137 143 163 242 290 292 268 272 288 268 243 241 261 285 272 281 286 285 286 281 275
138 120 115 109 91 101 85 80 96 104 114 70 12 317 320 335 335 319 297 274 187 172 191 219 260 282 276 272 253 271 258 223 247 258 264 274 298 294 280 277 278 274 276
129 126 130 130 131 109 108 152 190 181 167 238 269 298 317 325 312 308 301 291 305 329 307 267 266 303 278 259 240 224 212 226 242 259 286 285 290 280 273 275 275 278 282
166 159 152 154 144 161 181 210 226 229 233 238 258 301 313 304 305 315 310 298 294 296 297 296 293 285 283 274 232 185 230 259 281 304 296 287 279 277 277 281 278 283 293
187 182 171 176 193 192 211 230 245 245 239 259 284 295 302 315 318 308 301 303 287 287 293 300 316 333 303 232 228 250 301 306 306 307 304 298 293 301 304 303 304 296 283
201 184 185 198 196 205 217 233 248 255 245 269 287 300 325 309 301 313 310 301 303 306 331 334 332 53 33 5 358 345 326 316 319 325 319 315 310 301 315 311 303 300 293
193 182 196 201 203 211 214 242 263 280 274 275 290 294 300 297 307 304 296 289 285 281 320 45 45 72 43 38 31 33 21 1 342 332 319 315 318 319 301 298 299 298 291
198 199 205 209 216 216 235 275 287 277 270 276 278 286 290 291 292 285 286 287 277 302 13 104 106 85 48 34 30 5 3 345 322 316 306 315 306 306 309 301 306 306 294
205 207 204 176 186 220 253 273 285 274 268 270 279 271 276 294 298 293 290 286 271 232 164 154 116 79 36 16 2 357 330 318 312 313 316 311 319 310 315 322 303 306 296
178 177 154 140 161 223 251 271 290 293 276 270 268 268 279 288 287 281 287 281 264 193 127 110 107 92 58 11 356 353 289 291 304 308 316 319 324 320 329 330 333 308 321
130 115 119 144 189 110 57 291 292 282 277 282 278 272 277 282 275 286 266 252 175 137 123 125 122 98 64 348 348 345 274 279 298 316 316 315 317 332 335 336 320 333 347
122 119 110 90 143 232 253 297 295 286 302 301 289 277 272 269 283 288 292 161 143 139 154 141 179 335 293 310 312 337 335 336 292 310 307 294 329 338 341 338 332 351 338
119 108 111 135 292 298 299 288 275 301 304 303 295 295 274 255 274 277 204 149 156 162 197 199 201 243 249 271 296 316 319 331 305 291 320 342 342 344 343 344 346 347 338
124 128 122 307 305 309 296 258 294 309 311 297 306 305 281 268 270 242 202 184 184 208 226 204 221 229 264 270 277 285 296 316 302 316 322 313 332 324 315 338 345 337 339
152 149 322 302 288 297 294 306 311 315 301 296 305 313 289 257 271 215 198 197 215 196 202 219 202 178 253 246 230 284 263 289 258 329 355 340 332 338 340 346 344 340 343
166 230 281 278 283 300 305 304 298 303 297 286 306 285 293 262 222 215 240 240 231 234 232 227 191 218 222 235 267 291 302 326 357 25 345 309 313 325 329 340 339 332 346